GW0458 Weather Reports


time (UTC)temp
F
wind
direction
speed
knots
gust
knots
rain 1hr
in
rain 24hr
in
rain mn
in
humidity
%
barometer
mb
20260831180714 70 214 0.9 0.9 0.00 0.00 0.00 65 1020.3
20260831173710 71 203 0.9 0.9 0.00 0.00 0.00 68 1020.8
20260831170708 67 205 0.0 0.0 0.00 0.00 0.00 73 1020.7
20260831163706 63 216 0.9 0.9 0.00 0.00 0.00 80 1020.9
20260831160702 61 209 0.0 0.0 0.00 0.00 0.00 82 1021.6
20260831153700 57 206 0.0 0.0 0.00 0.00 0.00 90 1021.8
20260831150655 53 207 0.0 0.0 0.00 0.00 0.00 99 1022.0
20260831143654 50 205 0.0 0.0 0.00 0.00 0.00 99 1021.8
20260831140651 50 205 0.0 0.0 0.00 0.00 0.00 99 1021.8
20260831133648 49 203 0.0 0.0 0.00 0.00 0.00 99 1021.8
20260831130648 50 192 0.0 0.0 0.00 0.00 0.00 99 1021.9
20260831123647 51 202 0.0 0.0 0.00 0.00 0.00 99 1022.0
20260831120644 52 205 0.0 0.0 0.00 0.00 0.00 99 1022.1
20260831113642 53 211 0.0 0.0 0.00 0.00 0.00 98 1022.4
20260831110642 54 214 0.0 0.0 0.00 0.00 0.00 96 1022.4
20260831103642 54 201 0.0 0.0 0.00 0.00 0.00 97 1022.8
20260831100642 55 217 0.0 0.0 0.00 0.00 0.00 94 1022.9
20260831093641 55 208 0.0 0.0 0.00 0.00 0.00 94 1023.3
20260831090636 56 207 0.0 0.0 0.00 0.00 0.00 92 1023.7
20260831083633 56 205 0.0 0.0 0.00 0.00 0.00 91 1023.6
20260831080632 57 201 0.0 0.0 0.00 0.00 0.00 88 1024.1
20260831073630 56 205 0.0 0.0 0.00 0.00 0.00 90 1023.9
20260831070626 57 209 0.0 0.0 0.00 0.00 0.00 86 1024.3
20260831063623 57 204 0.0 0.0 0.00 0.00 0.00 85 1024.4
20260831060620 59 208 0.0 0.0 0.00 0.00 0.00 80 1024.8
20260831053620 61 200 0.0 0.0 0.00 0.00 0.00 77 1025.1
20260831050615 60 204 0.0 0.0 0.00 0.00 0.00 79 1025.4
20260831043613 61 202 0.0 0.0 0.00 0.00 0.00 76 1025.3
20260831040609 63 208 0.0 0.0 0.00 0.00 0.00 71 1025.2
20260831033604 65 208 0.0 0.0 0.00 0.00 0.00 70 1025.0
20260831030604 65 205 0.0 0.0 0.00 0.00 0.00 68 1024.8
20260831023602 67 207 0.0 0.0 0.00 0.00 0.00 64 1025.0
20260831020559 68 236 0.0 0.9 0.00 0.00 0.00 62 1025.0
20260831013554 69 212 0.9 0.9 0.00 0.00 0.00 58 1025.2
20260831010551 69 217 0.9 1.7 0.00 0.00 0.00 60 1025.6
20260831003547 69 249 0.9 0.9 0.00 0.00 0.00 60 1025.8
20260831000542 71 211 0.0 0.9 0.00 0.00 0.00 56 1025.9
20260830233538 72 219 0.9 0.9 0.00 0.00 0.00 57 1026.1
20260830230533 72 213 0.0 0.0 0.00 0.00 0.00 58 1026.2
20260830223533 69 205 0.9 0.9 0.00 0.00 0.00 63 1026.6
20260830220532 72 215 0.0 0.9 0.00 0.00 0.00 58 1026.5
20260830213527 69 208 0.0 0.9 0.00 0.00 0.00 63 1027.4
20260830210526 71 219 0.9 0.9 0.00 0.00 0.00 59 1027.5
20260830203526 71 213 0.0 0.0 0.00 0.00 0.00 58 1027.4
20260830200524 66 190 0.9 0.9 0.00 0.00 0.00 67 1027.9
20260830193521 66 214 0.9 0.9 0.00 0.00 0.00 66 1028.0
20260830190520 65 77 1.7 2.6 0.00 0.00 0.00 67 1028.2
20260830183517 67 212 0.0 0.9 0.00 0.00 0.00 67 1028.5